Location: Barcelona
(41.3830°N, 2.1830°E)
Time: 22:53:00
(UTC+02:00)

ISS - Pass Details

Date: 24 July 2017
Orbit: 400 x 408 km, 51.6° (Epoch: 24 July)

Event Time Altitude Azimuth Distance (km) Brightness Sun altitude
Rises 22:26:39 0° 230° (SW) 2,299 0.1 -11.8°
Reaches altitude 10° 22:28:43 10° 229° (SW) 1,443 -0.9 -12.1°
Maximum altitude 22:31:57 79° 144° (SE) 411 -4.0 -12.6°
Drops below altitude 10° 22:35:12 10° 57° (ENE) 1,451 -1.2 -13.0°
Sets 22:37:17 0° 56° (NE) 2,313 -0.1 -13.3°
